Casper, WY

4:33 AM MST on December 11, 2019 (GMT -0700)
Natrona County International

Weather History for KCPR - October, 2019

Change the Weather History Date:

Monday, October 14, 2019

  Actual Average Record
Temperature  
Mean Temperature 52 °F 46 °F  
Max Temperature 69 °F 60 °F 80 °F (1958)
Min Temperature 34 °F 31 °F 9 °F (1969)
Degree Days  
Heating Degree Days 14 19  
Month to date heating degree days 239  
Since 1 July heating degree days 524  
Cooling Degree Days 0 0  
Month to date cooling degree days 0  
Year to date cooling degree days 422  
Growing Degree Days 2 (Base 50)    
Moisture  
Dew Point 15 °F    
Average Humidity 27    
Maximum Humidity 73    
Minimum Humidity 5    
Precipitation  
Precipitation 0.00 in 0.03 in 0.53 in (1957)
Month to date precipitation 0.53  
Year to date precipitation 10.69  
Snow  
Snow 0.00 in 0.20 in - ()
Month to date snowfall 2.8  
Since 1 July snowfall 4.6  
Since 1 September snowfall 4.6  
Snow Depth -    
Sea Level Pressure  
Sea Level Pressure 29.83 in    
Wind  
Wind Speed 15 mph (WNW)    
Max Wind Speed 24 mph    
Max Gust Speed 40 mph    
Visibility 10 miles    
Events      
T = Trace of Precipitation, MM = Missing Value Source: NWS Daily Summary

Daily Weather History Graph

Daily Weather History Graph

Search for Another Location

Airport or City:

Astronomy

Oct. 14, 2019 Rise Set
Actual Time 7:17 AM MDT 6:25 PM MDT
Civil Twilight 6:49 AM MDT 6:53 PM MDT
Nautical Twilight 6:16 AM MDT 7:26 PM MDT
Astronomical Twilight 5:43 AM MDT 7:59 PM MDT
Moon 7:16 PM MDT (10/14) 7:52 AM MDT (10/14)
Length of Visible Light 12h 04m
Length of Day
11h 07m
Full, 99% of the Moon is Illuminated
Oct 14
Full
Oct 21
Last Quarter
Oct 27
New
Nov 4
First Quarter
Nov 12
Full

Hourly Weather History & Observations

Time (MDT) Temp. Windchill Dew Point Humidity Pressure Visibility Wind Dir Wind Speed Gust Speed Precip Events Conditions
1:53 AM 48.9 °F - 8.1 °F 19% 29.76 in 10.0 mi WSW 15.0 mph - N/A   Clear
2:53 AM 46.9 °F - 7.0 °F 20% 29.74 in 10.0 mi SW 12.7 mph - N/A   Clear
3:53 AM 46.9 °F - 7.0 °F 20% 29.74 in 10.0 mi SW 16.1 mph - N/A   Clear
4:53 AM 46.0 °F 39.9 °F 9.0 °F 22% 29.74 in 10.0 mi SW 13.8 mph - N/A   Clear
5:53 AM 44.1 °F 37.4 °F 10.0 °F 25% 29.78 in 10.0 mi SW 13.8 mph 20.7 mph N/A   Clear
6:53 AM 44.1 °F 36.5 °F 10.9 °F 26% 29.83 in 10.0 mi SSW 17.3 mph - N/A   Clear
7:53 AM 45.0 °F 38.2 °F 10.9 °F 25% 29.85 in 10.0 mi SW 15.0 mph 26.5 mph N/A   Clear
8:53 AM 50.0 °F - 10.0 °F 20% 29.83 in 10.0 mi SW 20.7 mph 28.8 mph N/A   Clear
9:53 AM 53.1 °F - 10.9 °F 19% 29.85 in 10.0 mi SW 20.7 mph 27.6 mph N/A   Clear
10:53 AM 59.0 °F - 12.9 °F 16% 29.82 in 10.0 mi SW 16.1 mph - N/A   Clear
11:53 AM 66.0 °F - 12.0 °F 12% 29.77 in 10.0 mi West 20.7 mph 29.9 mph N/A   Clear
12:53 PM 66.9 °F - 12.9 °F 12% 29.74 in 10.0 mi WNW 19.6 mph 28.8 mph N/A   Clear
1:53 PM 68.0 °F - 12.9 °F 12% 29.70 in 10.0 mi West 20.7 mph 34.5 mph 0.00 in   Clear
2:53 PM 68.0 °F - 10.9 °F 11% 29.70 in 10.0 mi WNW 23.0 mph 40.3 mph 0.00 in   Clear
3:53 PM 64.9 °F - 10.9 °F 12% 29.72 in 10.0 mi WNW 24.2 mph 32.2 mph 0.00 in   Clear
4:53 PM 63.0 °F - 12.0 °F 14% 29.75 in 10.0 mi WNW 17.3 mph 27.6 mph N/A   Clear
5:53 PM 57.9 °F - 14.0 °F 18% 29.80 in 10.0 mi NW 9.2 mph - N/A   Clear
6:32 PM 50.0 °F - 25.0 °F 38% 29.92 in 10.0 mi North 12.7 mph - N/A   Clear
6:53 PM 46.9 °F - 25.0 °F 42% 29.89 in 10.0 mi NNE 9.2 mph - N/A   Clear
7:53 PM 46.9 °F - 27.0 °F 46% 29.96 in 10.0 mi NE 10.4 mph - N/A   Clear
8:53 PM 41.0 °F 35.2 °F 28.0 °F 60% 30.01 in 10.0 mi NNE 9.2 mph - N/A   Clear
9:53 PM 35.1 °F 28.6 °F 26.1 °F 70% 30.06 in 10.0 mi North 8.1 mph - N/A   Clear
10:53 PM 34.0 °F 26.6 °F 26.1 °F 73% 30.07 in 10.0 mi NNE 9.2 mph - N/A   Scattered Clouds
11:53 PM 37.0 °F 29.3 °F 28.9 °F 73% 30.06 in 10.0 mi NNE 11.5 mph - N/A   Mostly Cloudy